owner,sensor,date,latitude,longitude,vertical_datum,direction_of_sea_water_velocity,sea_water_speed,upward_sea_water_velocity,qcFlag 
TABS,ioos:station:wmo:42051:1,2008-12-01T00:00:00Z,29.6350,-93.6417,2.0,78.06886604,47.20988985,-99999.0,'11111222,11111222,99999999' 
TABS,ioos:station:wmo:42051:1,2008-12-01T00:30:00Z,29.6350,-93.6417,2.0,85.55347153,45.01549178,-99999.0,'11111222,11111222,99999999' 
TABS,ioos:station:wmo:42051:1,2008-12-01T01:00:00Z,29.6350,-93.6417,2.0,88.81068812,42.8792374,-99999.0,'11111222,11111222,99999999' 
TABS,ioos:station:wmo:42051:1,2008-12-01T01:30:00Z,29.6350,-93.6417,2.0,89.10173015,49.11603608,-99999.0,'11111222,11111222,99999999' 
TABS,ioos:station:wmo:42051:1,2008-12-01T02:00:00Z,29.6350,-93.6417,2.0,79.87760703,44.66523704,-99999.0,'11111222,11111222,99999999' 
TABS,ioos:station:wmo:42051:1,2008-12-01T02:30:00Z,29.6350,-93.6417,2.0,97.05349107,53.66615041,-99999.0,'11111222,11111222,99999999' 
TABS,ioos:station:wmo:42051:1,2008-12-01T03:00:00Z,29.6350,-93.6417,2.0,96.18809393,54.08513474,-99999.0,'11111222,11111222,99999999' 
TABS,ioos:station:wmo:42051:1,2008-12-01T03:30:00Z,29.6350,-93.6417,2.0,97.0345919,52.66645422,-99999.0,'11111222,11111222,99999999' 
TABS,ioos:station:wmo:42051:1,2008-12-01T04:00:00Z,29.6350,-93.6417,2.0,101.4539393,49.14881992,-99999.0,'11111222,11111222,99999999' 
TABS,ioos:station:wmo:42051:1,2008-12-01T04:30:00Z,29.6350,-93.6417,2.0,97.83176052,47.26082945,-99999.0,'11111222,11111222,99999999' 
TABS,ioos:station:wmo:42051:1,2008-12-01T05:00:00Z,29.6350,-93.6417,2.0,93.14801892,40.97182691,-99999.0,'11111222,11111222,99999999' 
TABS,ioos:station:wmo:42051:1,2008-12-01T05:30:00Z,29.6350,-93.6417,2.0,90.51320927,40.19161231,-99999.0,'11111222,11111222,99999999' 
TABS,ioos:station:wmo:42051:1,2008-12-01T06:00:00Z,29.6350,-93.6417,2.0,92.57748509,40.4709439,-99999.0,'11111222,11111222,99999999' 
TABS,ioos:station:wmo:42051:1,2008-12-01T06:30:00Z,29.6350,-93.6417,2.0,92.52129055,38.41719016,-99999.0,'11111222,11111222,99999999' 
TABS,ioos:station:wmo:42051:1,2008-12-01T07:00:00Z,29.6350,-93.6417,2.0,96.2578055,45.32004082,-99999.0,'11111222,11111222,99999999' 
TABS,ioos:station:wmo:42051:1,2008-12-01T07:30:00Z,29.6350,-93.6417,2.0,96.52346737,44.18608831,-99999.0,'11111222,11111222,99999999' 
TABS,ioos:station:wmo:42051:1,2008-12-01T08:00:00Z,29.6350,-93.6417,2.0,89.38146697,39.83232105,-99999.0,'11111222,11111222,99999999' 
TABS,ioos:station:wmo:42051:1,2008-12-01T08:30:00Z,29.6350,-93.6417,2.0,96.13869724,42.08129751,-99999.0,'11111222,11111222,99999999' 
TABS,ioos:station:wmo:42051:1,2008-12-01T09:00:00Z,29.6350,-93.6417,2.0,103.4834006,52.53808714,-99999.0,'11111222,11111222,99999999' 
TABS,ioos:station:wmo:42051:1,2008-12-01T09:30:00Z,29.6350,-93.6417,2.0,105.5691392,51.04291234,-99999.0,'11111222,11111222,99999999' 
TABS,ioos:station:wmo:42051:1,2008-12-01T10:00:00Z,29.6350,-93.6417,2.0,102.6944766,46.50683068,-99999.0,'11111222,11111222,99999999' 
TABS,ioos:station:wmo:42051:1,2008-12-01T10:30:00Z,29.6350,-93.6417,2.0,98.58542961,40.92863301,-99999.0,'11111222,11111222,99999999' 
TABS,ioos:station:wmo:42051:1,2008-12-01T11:00:00Z,29.6350,-93.6417,2.0,95.50324827,34.09716264,-99999.0,'11111222,11111222,99999999' 
TABS,ioos:station:wmo:42051:1,2008-12-01T11:30:00Z,29.6350,-93.6417,2.0,90.20226235,31.16019416,-99999.0,'11111222,11111222,99999999' 
TABS,ioos:station:wmo:42051:1,2008-12-01T12:00:00Z,29.6350,-93.6417,2.0,102.9762082,39.72443203,-99999.0,'11111222,11111222,99999999' 
TABS,ioos:station:wmo:42051:1,2008-12-01T12:30:00Z,29.6350,-93.6417,2.0,103.9870878,45.26201498,-99999.0,'11111222,11111222,99999999' 
TABS,ioos:station:wmo:42051:1,2008-12-01T13:00:00Z,29.6350,-93.6417,2.0,100.7819406,45.97157383,-99999.0,'11111222,11111222,99999999' 
TABS,ioos:station:wmo:42051:1,2008-12-01T13:30:00Z,29.6350,-93.6417,2.0,98.12187715,39.49615678,-99999.0,'11111222,11111222,99999999' 
TABS,ioos:station:wmo:42051:1,2008-12-01T14:00:00Z,29.6350,-93.6417,2.0,91.95908127,33.6396626,-99999.0,'11111222,11111222,99999999' 
TABS,ioos:station:wmo:42051:1,2008-12-01T14:30:00Z,29.6350,-93.6417,2.0,96.95708994,33.43618698,-99999.0,'11111222,11111222,99999999' 
TABS,ioos:station:wmo:42051:1,2008-12-01T15:00:00Z,29.6350,-93.6417,2.0,93.71226218,34.44226764,-99999.0,'11111222,11111222,99999999' 
TABS,ioos:station:wmo:42051:1,2008-12-01T15:30:00Z,29.6350,-93.6417,2.0,87.28793543,34.44858488,-99999.0,'11111222,11111222,99999999' 
TABS,ioos:station:wmo:42051:1,2008-12-01T16:00:00Z,29.6350,-93.6417,2.0,96.53061679,37.54361331,-99999.0,'11111222,11111222,99999999' 
TABS,ioos:station:wmo:42051:1,2008-12-01T16:30:00Z,29.6350,-93.6417,2.0,101.0897458,41.85149221,-99999.0,'11111222,11111222,99999999' 
TABS,ioos:station:wmo:42051:1,2008-12-01T17:00:00Z,29.6350,-93.6417,2.0,92.67246142,37.96128686,-99999.0,'11111222,11111222,99999999' 
TABS,ioos:station:wmo:42051:1,2008-12-01T17:30:00Z,29.6350,-93.6417,2.0,75.95235538,36.46038124,-99999.0,'11111222,11111222,99999999' 
TABS,ioos:station:wmo:42051:1,2008-12-01T18:00:00Z,29.6350,-93.6417,2.0,77.30913217,39.87414701,-99999.0,'11111222,11111222,99999999' 
TABS,ioos:station:wmo:42051:1,2008-12-01T18:30:00Z,29.6350,-93.6417,2.0,74.53601851,37.76724639,-99999.0,'11111222,11111222,99999999' 
TABS,ioos:station:wmo:42051:1,2008-12-01T19:00:00Z,29.6350,-93.6417,2.0,70.08641049,39.45939178,-99999.0,'11111222,11111222,99999999' 
TABS,ioos:station:wmo:42051:1,2008-12-01T19:30:00Z,29.6350,-93.6417,2.0,64.03973079,34.74595948,-99999.0,'11111222,11111222,99999999' 
TABS,ioos:station:wmo:42051:1,2008-12-01T20:00:00Z,29.6350,-93.6417,2.0,71.91135525,40.29131544,-99999.0,'11111222,11111222,99999999' 
TABS,ioos:station:wmo:42051:1,2008-12-01T20:30:00Z,29.6350,-93.6417,2.0,77.89061705,38.23067878,-99999.0,'11111222,11111222,99999999' 
TABS,ioos:station:wmo:42051:1,2008-12-01T21:00:00Z,29.6350,-93.6417,2.0,76.03838279,35.39567911,-99999.0,'11111222,11111222,99999999' 
TABS,ioos:station:wmo:42051:1,2008-12-01T21:30:00Z,29.6350,-93.6417,2.0,72.7433146,33.37224745,-99999.0,'11111222,11111222,99999999' 
TABS,ioos:station:wmo:42051:1,2008-12-01T22:00:00Z,29.6350,-93.6417,2.0,68.77904991,33.17988849,-99999.0,'11111222,11111222,99999999' 
TABS,ioos:station:wmo:42051:1,2008-12-01T22:30:00Z,29.6350,-93.6417,2.0,71.581373,33.39049116,-99999.0,'11111222,11111222,99999999' 
TABS,ioos:station:wmo:42051:1,2008-12-01T23:00:00Z,29.6350,-93.6417,2.0,76.42418214,28.37273339,-99999.0,'11111222,11111222,99999999' 
TABS,ioos:station:wmo:42051:1,2008-12-01T23:30:00Z,29.6350,-93.6417,2.0,74.63045763,28.97630066,-99999.0,'11111222,11111222,99999999' 
TABS,ioos:station:wmo:42051:1,2008-12-02T00:00:00Z,29.6350,-93.6417,2.0,86.40708339,30.15927884,-99999.0,'11111222,11111222,99999999' 
TABS,ioos:station:wmo:42051:1,2008-12-02T00:30:00Z,29.6350,-93.6417,2.0,85.96330592,26.70625395,-99999.0,'11111222,11111222,99999999' 
TABS,ioos:station:wmo:42051:1,2008-12-02T01:00:00Z,29.6350,-93.6417,2.0,92.73205246,23.70694624,-99999.0,'11111222,11111222,99999999' 
TABS,ioos:station:wmo:42051:1,2008-12-02T01:30:00Z,29.6350,-93.6417,2.0,87.23469678,24.45848115,-99999.0,'11111222,11111222,99999999' 
TABS,ioos:station:wmo:42051:1,2008-12-02T02:00:00Z,29.6350,-93.6417,2.0,95.79594745,28.71680518,-99999.0,'11111222,11111222,99999999' 
TABS,ioos:station:wmo:42051:1,2008-12-02T02:30:00Z,29.6350,-93.6417,2.0,102.6210211,28.97001553,-99999.0,'11111222,11111222,99999999' 
TABS,ioos:station:wmo:42051:1,2008-12-02T03:00:00Z,29.6350,-93.6417,2.0,87.81064859,28.27063671,-99999.0,'11111222,11111222,99999999' 
TABS,ioos:station:wmo:42051:1,2008-12-02T03:30:00Z,29.6350,-93.6417,2.0,101.7954507,30.08529541,-99999.0,'11111222,11111222,99999999' 
TABS,ioos:station:wmo:42051:1,2008-12-02T04:00:00Z,29.6350,-93.6417,2.0,89.43363207,25.29123564,-99999.0,'11111222,11111222,99999999' 
TABS,ioos:station:wmo:42051:1,2008-12-02T04:30:00Z,29.6350,-93.6417,2.0,93.72864832,27.21761378,-99999.0,'11111222,11111222,99999999' 
TABS,ioos:station:wmo:42051:1,2008-12-02T05:00:00Z,29.6350,-93.6417,2.0,97.25902434,26.51249705,-99999.0,'11111222,11111222,99999999' 
TABS,ioos:station:wmo:42051:1,2008-12-02T05:30:00Z,29.6350,-93.6417,2.0,95.68714811,21.89778528,-99999.0,'11111222,11111222,99999999' 
TABS,ioos:station:wmo:42051:1,2008-12-02T06:00:00Z,29.6350,-93.6417,2.0,89.17565911,20.85215816,-99999.0,'11111222,11111222,99999999' 
TABS,ioos:station:wmo:42051:1,2008-12-02T06:30:00Z,29.6350,-93.6417,2.0,83.64782232,15.81710783,-99999.0,'11111222,11111222,99999999' 
TABS,ioos:station:wmo:42051:1,2008-12-02T07:00:00Z,29.6350,-93.6417,2.0,91.73784869,16.15743173,-99999.0,'11111222,11111222,99999999' 
TABS,ioos:station:wmo:42051:1,2008-12-02T07:30:00Z,29.6350,-93.6417,2.0,102.8460608,12.14395323,-99999.0,'11111222,11111222,99999999' 
TABS,ioos:station:wmo:42051:1,2008-12-02T08:00:00Z,29.6350,-93.6417,2.0,84.9754231,12.21694725,-99999.0,'11111222,11111222,99999999' 
TABS,ioos:station:wmo:42051:1,2008-12-02T08:30:00Z,29.6350,-93.6417,2.0,103.0742153,8.089703332,-99999.0,'11133222,11111222,99999999' 
TABS,ioos:station:wmo:42051:1,2008-12-02T09:00:00Z,29.6350,-93.6417,2.0,96.49734227,7.246544004,-99999.0,'11133222,11111222,99999999' 
TABS,ioos:station:wmo:42051:1,2008-12-02T09:30:00Z,29.6350,-93.6417,2.0,112.5901098,7.419231766,-99999.0,'11133222,11111222,99999999' 
TABS,ioos:station:wmo:42051:1,2008-12-02T10:00:00Z,29.6350,-93.6417,2.0,113.8281334,3.465385981,-99999.0,'11133222,11111222,99999999' 
TABS,ioos:station:wmo:42051:1,2008-12-02T10:30:00Z,29.6350,-93.6417,2.0,108.9211371,4.47162163,-99999.0,'11133222,11111222,99999999' 
TABS,ioos:station:wmo:42051:1,2008-12-02T11:00:00Z,29.6350,-93.6417,2.0,109.4491122,6.967589253,-99999.0,'11133222,11111222,99999999' 
TABS,ioos:station:wmo:42051:1,2008-12-02T11:30:00Z,29.6350,-93.6417,2.0,137.4116434,5.88126687,-99999.0,'11133222,11111222,99999999' 
TABS,ioos:station:wmo:42051:1,2008-12-02T12:00:00Z,29.6350,-93.6417,2.0,132.793616,4.224559149,-99999.0,'11133222,11111222,99999999' 
TABS,ioos:station:wmo:42051:1,2008-12-02T12:30:00Z,29.6350,-93.6417,2.0,133.4600601,5.262774933,-99999.0,'11133222,11111222,99999999' 
TABS,ioos:station:wmo:42051:1,2008-12-02T13:00:00Z,29.6350,-93.6417,2.0,161.6452423,4.509412379,-99999.0,'11133222,11111222,99999999' 
TABS,ioos:station:wmo:42051:1,2008-12-02T13:30:00Z,29.6350,-93.6417,2.0,128.63107,6.246951256,-99999.0,'11133222,11111222,99999999' 
TABS,ioos:station:wmo:42051:1,2008-12-02T14:00:00Z,29.6350,-93.6417,2.0,54.46240531,1.720465053,-99999.0,'11133222,11111222,99999999' 
TABS,ioos:station:wmo:42051:1,2008-12-02T14:30:00Z,29.6350,-93.6417,2.0,35.27888534,3.601388621,-99999.0,'11133222,11111222,99999999' 
TABS,ioos:station:wmo:42051:1,2008-12-02T15:00:00Z,29.6350,-93.6417,2.0,40.914498,6.55031297,-99999.0,'11133222,11111222,99999999' 
TABS,ioos:station:wmo:42051:1,2008-12-02T15:30:00Z,29.6350,-93.6417,2.0,52.39409658,6.538539592,-99999.0,'11133222,11111222,99999999' 
TABS,ioos:station:wmo:42051:1,2008-12-02T16:00:00Z,29.6350,-93.6417,2.0,36.26374139,9.450529086,-99999.0,'11133222,11111222,99999999' 
TABS,ioos:station:wmo:42051:1,2008-12-02T16:30:00Z,29.6350,-93.6417,2.0,28.77164615,10.22193719,-99999.0,'11111222,11111222,99999999' 
TABS,ioos:station:wmo:42051:1,2008-12-02T17:00:00Z,29.6350,-93.6417,2.0,29.73323418,12.0574168,-99999.0,'11111222,11111222,99999999' 
TABS,ioos:station:wmo:42051:1,2008-12-02T17:30:00Z,29.6350,-93.6417,2.0,31.57088001,13.2747354,-99999.0,'11111222,11111222,99999999' 
TABS,ioos:station:wmo:42051:1,2008-12-02T18:00:00Z,29.6350,-93.6417,2.0,36.0949026,13.74925816,-99999.0,'11111222,11111222,99999999' 
TABS,ioos:station:wmo:42051:1,2008-12-02T18:30:00Z,29.6350,-93.6417,2.0,39.02825798,11.41809967,-99999.0,'11111222,11111222,99999999' 
TABS,ioos:station:wmo:42051:1,2008-12-02T19:00:00Z,29.6350,-93.6417,2.0,34.92895268,14.11209765,-99999.0,'11111222,11111222,99999999' 
TABS,ioos:station:wmo:42051:1,2008-12-02T19:30:00Z,29.6350,-93.6417,2.0,35.64420792,14.39729488,-99999.0,'11111222,11111222,99999999' 
TABS,ioos:station:wmo:42051:1,2008-12-02T20:00:00Z,29.6350,-93.6417,2.0,31.3055386,15.53118798,-99999.0,'11111222,11111222,99999999' 
TABS,ioos:station:wmo:42051:1,2008-12-02T20:30:00Z,29.6350,-93.6417,2.0,27.16462584,13.25166405,-99999.0,'11111222,11111222,99999999' 
TABS,ioos:station:wmo:42051:1,2008-12-02T21:00:00Z,29.6350,-93.6417,2.0,38.3790313,11.46797715,-99999.0,'11111222,11111222,99999999' 
TABS,ioos:station:wmo:42051:1,2008-12-02T21:30:00Z,29.6350,-93.6417,2.0,35.29648153,10.487955,-99999.0,'11111222,11111222,99999999' 
TABS,ioos:station:wmo:42051:1,2008-12-02T22:00:00Z,29.6350,-93.6417,2.0,19.38113797,11.3003584,-99999.0,'11111222,11111222,99999999' 
TABS,ioos:station:wmo:42051:1,2008-12-02T22:30:00Z,29.6350,-93.6417,2.0,32.17289217,10.16012303,-99999.0,'11111222,11111222,99999999' 
TABS,ioos:station:wmo:42051:1,2008-12-02T23:00:00Z,29.6350,-93.6417,2.0,39.00824579,13.61548016,-99999.0,'11111222,11111222,99999999' 
TABS,ioos:station:wmo:42051:1,2008-12-02T23:30:00Z,29.6350,-93.6417,2.0,52.11002579,9.997584708,-99999.0,'11133222,11111222,99999999' 
TABS,ioos:station:wmo:42051:1,2008-12-03T00:00:00Z,29.6350,-93.6417,2.0,63.1786563,9.995323907,-99999.0,'11133222,11111222,99999999' 
TABS,ioos:station:wmo:42051:1,2008-12-03T00:30:00Z,29.6350,-93.6417,2.0,77.18226905,7.527582613,-99999.0,'11133222,11111222,99999999' 
TABS,ioos:station:wmo:42051:1,2008-12-03T01:00:00Z,29.6350,-93.6417,2.0,64.81413146,10.03390751,-99999.0,'11111222,11111222,99999999' 
TABS,ioos:station:wmo:42051:1,2008-12-03T01:30:00Z,29.6350,-93.6417,2.0,86.25073122,7.64636515,-99999.0,'11133222,11111222,99999999' 
TABS,ioos:station:wmo:42051:1,2008-12-03T02:00:00Z,29.6350,-93.6417,2.0,83.4992623,5.12293861,-99999.0,'11133222,11111222,99999999' 
TABS,ioos:station:wmo:42051:1,2008-12-03T02:30:00Z,29.6350,-93.6417,2.0,96.1614637,3.540451949,-99999.0,'11133222,11111222,99999999' 
TABS,ioos:station:wmo:42051:1,2008-12-03T03:00:00Z,29.6350,-93.6417,2.0,103.2325839,4.150192767,-99999.0,'11133222,11111222,99999999' 
TABS,ioos:station:wmo:42051:1,2008-12-03T03:30:00Z,29.6350,-93.6417,2.0,86.16274686,4.931054654,-99999.0,'11133222,11111222,99999999' 
TABS,ioos:station:wmo:42051:1,2008-12-03T04:00:00Z,29.6350,-93.6417,2.0,99.47880228,5.707933076,-99999.0,'11133222,11111222,99999999' 
TABS,ioos:station:wmo:42051:1,2008-12-03T04:30:00Z,29.6350,-93.6417,2.0,111.0566564,4.286210447,-99999.0,'11133222,11111222,99999999' 
TABS,ioos:station:wmo:42051:1,2008-12-03T05:00:00Z,29.6350,-93.6417,2.0,112.0054504,7.8196803,-99999.0,'11133222,11111222,99999999' 
TABS,ioos:station:wmo:42051:1,2008-12-03T05:30:00Z,29.6350,-93.6417,2.0,94.71264067,2.799464234,-99999.0,'11133222,11111222,99999999' 
TABS,ioos:station:wmo:42051:1,2008-12-03T06:00:00Z,29.6350,-93.6417,2.0,129.7907604,4.9844759,-99999.0,'11133222,11111222,99999999' 
TABS,ioos:station:wmo:42051:1,2008-12-03T06:30:00Z,29.6350,-93.6417,2.0,103.4799597,4.24699894,-99999.0,'11133222,11111222,99999999' 
TABS,ioos:station:wmo:42051:1,2008-12-03T07:00:00Z,29.6350,-93.6417,2.0,74.38419364,5.015117147,-99999.0,'11133222,11111222,99999999' 
TABS,ioos:station:wmo:42051:1,2008-12-03T07:30:00Z,29.6350,-93.6417,2.0,84.89492149,6.967639486,-99999.0,'11133222,11111222,99999999' 
TABS,ioos:station:wmo:42051:1,2008-12-03T08:00:00Z,29.6350,-93.6417,2.0,70.63605714,2.925491412,-99999.0,'11133222,11111222,99999999' 
TABS,ioos:station:wmo:42051:1,2008-12-03T08:30:00Z,29.6350,-93.6417,2.0,107.6646351,6.821649361,-99999.0,'11133222,11111222,99999999' 
TABS,ioos:station:wmo:42051:1,2008-12-03T09:00:00Z,29.6350,-93.6417,2.0,105.3796386,4.034476422,-99999.0,'11133222,11111222,99999999' 
TABS,ioos:station:wmo:42051:1,2008-12-03T09:30:00Z,29.6350,-93.6417,2.0,95.31648453,6.799249959,-99999.0,'11133222,11111222,99999999' 
TABS,ioos:station:wmo:42051:1,2008-12-03T10:00:00Z,29.6350,-93.6417,2.0,130.0461584,5.486428711,-99999.0,'11133222,11111222,99999999' 
TABS,ioos:station:wmo:42051:1,2008-12-03T10:30:00Z,29.6350,-93.6417,2.0,116.250181,5.697587209,-99999.0,'11133222,11111222,99999999' 
TABS,ioos:station:wmo:42051:1,2008-12-03T11:00:00Z,29.6350,-93.6417,2.0,135.7998894,6.58380589,-99999.0,'11133222,11111222,99999999' 
TABS,ioos:station:wmo:42051:1,2008-12-03T11:30:00Z,29.6350,-93.6417,2.0,139.2738309,5.977532936,-99999.0,'11133222,11111222,99999999' 
TABS,ioos:station:wmo:42051:1,2008-12-03T12:00:00Z,29.6350,-93.6417,2.0,147.3829095,8.441243984,-99999.0,'11133222,11111222,99999999' 
TABS,ioos:station:wmo:42051:1,2008-12-03T12:30:00Z,29.6350,-93.6417,2.0,144.281338,7.365487085,-99999.0,'11133222,11111222,99999999' 
TABS,ioos:station:wmo:42051:1,2008-12-03T13:00:00Z,29.6350,-93.6417,2.0,117.5341838,7.138550273,-99999.0,'11133222,11111222,99999999' 
TABS,ioos:station:wmo:42051:1,2008-12-03T13:30:00Z,29.6350,-93.6417,2.0,125.7132774,8.719776373,-99999.0,'11133222,11111222,99999999' 
TABS,ioos:station:wmo:42051:1,2008-12-03T14:00:00Z,29.6350,-93.6417,2.0,129.3951537,8.760507976,-99999.0,'11133222,11111222,99999999' 
TABS,ioos:station:wmo:42051:1,2008-12-03T14:30:00Z,29.6350,-93.6417,2.0,132.3722283,11.72201348,-99999.0,'11111222,11111222,99999999' 
TABS,ioos:station:wmo:42051:1,2008-12-03T15:00:00Z,29.6350,-93.6417,2.0,131.9384921,11.38652713,-99999.0,'11111222,11111222,99999999' 
TABS,ioos:station:wmo:42051:1,2008-12-03T15:30:00Z,29.6350,-93.6417,2.0,127.2935072,8.384229243,-99999.0,'11133222,11111222,99999999' 
TABS,ioos:station:wmo:42051:1,2008-12-03T16:00:00Z,29.6350,-93.6417,2.0,134.4246566,7.043138505,-99999.0,'11133222,11111222,99999999' 
TABS,ioos:station:wmo:42051:1,2008-12-03T16:30:00Z,29.6350,-93.6417,2.0,130.9808253,8.676324106,-99999.0,'11133222,11111222,99999999' 
TABS,ioos:station:wmo:42051:1,2008-12-03T17:00:00Z,29.6350,-93.6417,2.0,149.9909444,10.49717105,-99999.0,'11111222,11111222,99999999' 
TABS,ioos:station:wmo:42051:1,2008-12-03T17:30:00Z,29.6350,-93.6417,2.0,159.4437924,2.221440974,-99999.0,'11133222,11111222,99999999' 
TABS,ioos:station:wmo:42051:1,2008-12-03T18:00:00Z,29.6350,-93.6417,2.0,33.27502063,0.382753184,-99999.0,'11133222,11111222,99999999' 
TABS,ioos:station:wmo:42051:1,2008-12-03T18:30:00Z,29.6350,-93.6417,2.0,119.8184328,3.861204475,-99999.0,'11133222,11111222,99999999' 
TABS,ioos:station:wmo:42051:1,2008-12-03T19:00:00Z,29.6350,-93.6417,2.0,157.0590497,2.334652008,-99999.0,'11133222,11111222,99999999' 
TABS,ioos:station:wmo:42051:1,2008-12-03T19:30:00Z,29.6350,-93.6417,2.0,170.9250527,1.458252379,-99999.0,'11133222,11111222,99999999' 
TABS,ioos:station:wmo:42051:1,2008-12-03T20:00:00Z,29.6350,-93.6417,2.0,339.0757576,1.820027472,-99999.0,'11133222,11111222,99999999' 
TABS,ioos:station:wmo:42051:1,2008-12-03T20:30:00Z,29.6350,-93.6417,2.0,14.89364859,1.945353438,-99999.0,'11133222,11111222,99999999' 
TABS,ioos:station:wmo:42051:1,2008-12-03T21:00:00Z,29.6350,-93.6417,2.0,84.13404258,2.935370505,-99999.0,'11133222,11111222,99999999' 
TABS,ioos:station:wmo:42051:1,2008-12-03T21:30:00Z,29.6350,-93.6417,2.0,52.00135641,1.62431524,-99999.0,'11133222,11111222,99999999' 
TABS,ioos:station:wmo:42051:1,2008-12-03T22:00:00Z,29.6350,-93.6417,2.0,320.4776716,1.037111373,-99999.0,'11133222,11111222,99999999' 
TABS,ioos:station:wmo:42051:1,2008-12-03T22:30:00Z,29.6350,-93.6417,2.0,330.5388044,3.009119473,-99999.0,'11133222,11111222,99999999' 
TABS,ioos:station:wmo:42051:1,2008-12-03T23:00:00Z,29.6350,-93.6417,2.0,323.2876191,5.102019208,-99999.0,'11133222,11111222,99999999' 
TABS,ioos:station:wmo:42051:1,2008-12-03T23:30:00Z,29.6350,-93.6417,2.0,292.6847793,4.096925677,-99999.0,'11133222,11111222,99999999' 
TABS,ioos:station:wmo:42051:1,2008-12-04T00:00:00Z,29.6350,-93.6417,2.0,275.1948377,3.865876356,-99999.0,'11133222,11111222,99999999' 
TABS,ioos:station:wmo:42051:1,2008-12-04T00:30:00Z,29.6350,-93.6417,2.0,251.0505687,3.17189218,-99999.0,'11133222,11111222,99999999' 
TABS,ioos:station:wmo:42051:1,2008-12-04T01:00:00Z,29.6350,-93.6417,2.0,279.8662048,3.268332908,-99999.0,'11133222,11111222,99999999' 
TABS,ioos:station:wmo:42051:1,2008-12-04T01:30:00Z,29.6350,-93.6417,2.0,209.0000942,4.104655893,-99999.0,'11133222,11111222,99999999' 
TABS,ioos:station:wmo:42051:1,2008-12-04T02:00:00Z,29.6350,-93.6417,2.0,198.8075467,4.373522608,-99999.0,'11133222,11111222,99999999' 
TABS,ioos:station:wmo:42051:1,2008-12-04T02:30:00Z,29.6350,-93.6417,2.0,289.0978761,5.195969592,-99999.0,'11133222,11111222,99999999' 
TABS,ioos:station:wmo:42051:1,2008-12-04T03:00:00Z,29.6350,-93.6417,2.0,303.178855,3.106444913,-99999.0,'11133222,11111222,99999999' 
TABS,ioos:station:wmo:42051:1,2008-12-04T03:30:00Z,29.6350,-93.6417,2.0,88.82285787,1.460308187,-99999.0,'11133222,11111222,99999999' 
TABS,ioos:station:wmo:42051:1,2008-12-04T04:00:00Z,29.6350,-93.6417,2.0,138.9123584,3.834383914,-99999.0,'11133222,11111222,99999999' 
TABS,ioos:station:wmo:42051:1,2008-12-04T04:30:00Z,29.6350,-93.6417,2.0,129.7186665,1.690088755,-99999.0,'11133222,11111222,99999999' 
TABS,ioos:station:wmo:42051:1,2008-12-04T05:00:00Z,29.6350,-93.6417,2.0,97.37905984,7.552549239,-99999.0,'11133222,11111222,99999999' 
TABS,ioos:station:wmo:42051:1,2008-12-04T05:30:00Z,29.6350,-93.6417,2.0,115.3037591,11.58116574,-99999.0,'11111222,11111222,99999999' 
TABS,ioos:station:wmo:42051:1,2008-12-04T06:00:00Z,29.6350,-93.6417,2.0,84.51018657,4.390136672,-99999.0,'11133222,11111222,99999999' 
TABS,ioos:station:wmo:42051:1,2008-12-04T06:30:00Z,29.6350,-93.6417,2.0,116.2688902,8.653698631,-99999.0,'11133222,11111222,99999999' 
TABS,ioos:station:wmo:42051:1,2008-12-04T07:00:00Z,29.6350,-93.6417,2.0,126.4232244,17.44853002,-99999.0,'11111222,11111222,99999999' 
TABS,ioos:station:wmo:42051:1,2008-12-04T07:30:00Z,29.6350,-93.6417,2.0,156.9392815,10.90109169,-99999.0,'11111222,11111222,99999999' 
TABS,ioos:station:wmo:42051:1,2008-12-04T08:00:00Z,29.6350,-93.6417,2.0,194.3503046,10.61109325,-99999.0,'11111222,11111222,99999999' 
TABS,ioos:station:wmo:42051:1,2008-12-04T08:30:00Z,29.6350,-93.6417,2.0,210.559753,11.68277364,-99999.0,'11111222,11111222,99999999' 
TABS,ioos:station:wmo:42051:1,2008-12-04T09:00:00Z,29.6350,-93.6417,2.0,211.7891852,12.37662313,-99999.0,'11111222,11111222,99999999' 
TABS,ioos:station:wmo:42051:1,2008-12-04T09:30:00Z,29.6350,-93.6417,2.0,225.2150805,15.04733864,-99999.0,'11111222,11111222,99999999' 
TABS,ioos:station:wmo:42051:1,2008-12-04T10:00:00Z,29.6350,-93.6417,2.0,240.6930912,15.24059382,-99999.0,'11111222,11111222,99999999' 
TABS,ioos:station:wmo:42051:1,2008-12-04T10:30:00Z,29.6350,-93.6417,2.0,233.5136523,15.5223484,-99999.0,'11111222,11111222,99999999' 
TABS,ioos:station:wmo:42051:1,2008-12-04T11:00:00Z,29.6350,-93.6417,2.0,231.5133883,17.01677114,-99999.0,'11111222,11111222,99999999' 
TABS,ioos:station:wmo:42051:1,2008-12-04T11:30:00Z,29.6350,-93.6417,2.0,234.8536033,14.62661957,-99999.0,'11111222,11111222,99999999' 
TABS,ioos:station:wmo:42051:1,2008-12-04T12:00:00Z,29.6350,-93.6417,2.0,240.819702,15.09576099,-99999.0,'11111222,11111222,99999999' 
TABS,ioos:station:wmo:42051:1,2008-12-04T12:30:00Z,29.6350,-93.6417,2.0,263.6322392,13.97621551,-99999.0,'11111222,11111222,99999999' 
TABS,ioos:station:wmo:42051:1,2008-12-04T13:00:00Z,29.6350,-93.6417,2.0,256.1769911,15.6121267,-99999.0,'11111222,11111222,99999999' 
TABS,ioos:station:wmo:42051:1,2008-12-04T13:30:00Z,29.6350,-93.6417,2.0,269.6766602,12.42019726,-99999.0,'11111222,11111222,99999999' 
TABS,ioos:station:wmo:42051:1,2008-12-04T14:00:00Z,29.6350,-93.6417,2.0,258.4924118,6.265947654,-99999.0,'11133222,11111222,99999999' 
TABS,ioos:station:wmo:42051:1,2008-12-04T14:30:00Z,29.6350,-93.6417,2.0,219.92127,7.588761427,-99999.0,'11133222,11111222,99999999' 
TABS,ioos:station:wmo:42051:1,2008-12-04T15:00:00Z,29.6350,-93.6417,2.0,257.0599437,9.378144806,-99999.0,'11133222,11111222,99999999' 
TABS,ioos:station:wmo:42051:1,2008-12-04T15:30:00Z,29.6350,-93.6417,2.0,259.3386073,10.21634475,-99999.0,'11111222,11111222,99999999' 
TABS,ioos:station:wmo:42051:1,2008-12-04T16:00:00Z,29.6350,-93.6417,2.0,244.0131316,14.17292136,-99999.0,'11111222,11111222,99999999' 